CW8468 Weather Reports


Display with metric or nautical units.
time (UTC)temp
F
wind
direction
speed
MPH
gust
MPH
rain 1hr
in
rain 24hr
in
rain mn
in
humidity
%
barometer
mb
20260507184003 74 358 5.0 11.0 0.00 0.00 0.00 68 1014.5
20260507183502 73 348 5.0 10.0 0.00 0.00 0.00 68 1014.6
20260507182501 73 3 6.0 11.0 0.00 0.00 0.00 68 1014.9
20260507182003 72 58 5.0 11.0 0.00 0.00 0.00 69 1014.9
20260507181517 73 18 5.0 11.0 0.00 0.00 0.00 68 1014.9
20260507180502 72 358 5.0 13.0 0.00 0.00 0.00 71 1014.8
20260507180026 71 333 6.0 15.0 0.00 0.00 0.00 71 1014.9
20260507175501 71 313 5.0 15.0 0.00 0.00 0.00 70 1015.1
20260507175003 70 79 5.0 12.0 0.00 0.00 0.00 71 1015.2
20260507174516 71 293 5.0 10.0 0.00 0.00 0.00 71 1015.3
20260507174002 70 21 5.0 10.0 0.00 0.00 0.00 72 1015.4
20260507173501 70 348 5.0 10.0 0.00 0.00 0.00 71 1015.4
20260507173025 70 30 5.0 10.0 0.00 0.00 0.00 70 1015.5
20260507172503 70 307 4.0 10.0 0.00 0.00 0.00 71 1015.5
20260507171516 70 10 4.0 9.0 0.00 0.00 0.00 72 1015.5
20260507171002 69 326 4.0 8.0 0.00 0.00 0.00 72 1015.7
20260507170501 69 15 4.0 8.0 0.00 0.00 0.00 72 1015.7
20260507165001 69 296 4.0 9.0 0.00 0.00 0.00 72 1015.7
20260507164516 69 60 3.0 9.0 0.00 0.00 0.00 72 1015.6
20260507164002 69 342 2.0 8.0 0.00 0.00 0.00 72 1015.7
20260507163501 69 348 3.0 6.0 0.00 0.00 0.00 72 1015.5
20260507163027 69 337 3.0 8.0 0.00 0.00 0.00 73 1015.4
20260507162002 68 16 4.0 11.0 0.00 0.00 0.00 74 1015.3
20260507161516 68 32 4.0 11.0 0.00 0.00 0.00 75 1015.2
20260507160501 67 353 4.0 10.0 0.00 0.00 0.00 74 1014.9
20260507160025 67 348 4.0 10.0 0.00 0.00 0.00 74 1014.9
20260507155500 67 348 4.0 11.0 0.00 0.00 0.00 75 1015.0
20260507155002 67 23 4.0 11.0 0.00 0.00 0.00 77 1015.1
20260507154515 66 344 4.0 10.0 0.00 0.00 0.00 77 1015.2
20260507154001 66 2 4.0 9.0 0.00 0.00 0.00 77 1015.3
20260507153501 65 336 4.0 9.0 0.00 0.00 0.00 77 1015.4
20260507153027 65 358 5.0 12.0 0.00 0.00 0.00 77 1015.5
20260507152500 65 315 5.0 12.0 0.00 0.00 0.00 77 1015.6
20260507152001 65 49 5.0 9.0 0.00 0.00 0.00 78 1015.4
20260507151515 65 353 4.0 10.0 0.00 0.00 0.00 78 1015.4
20260507151002 65 358 4.0 10.0 0.00 0.00 0.00 78 1015.4
20260507150501 65 39 4.0 10.0 0.00 0.00 0.00 79 1015.4
20260507150023 65 333 4.0 12.0 0.00 0.00 0.00 79 1015.4
20260507145502 64 23 4.0 12.0 0.00 0.00 0.00 79 1015.4
20260507145002 64 358 4.0 8.0 0.00 0.00 0.00 79 1015.5
20260507144516 64 2 5.0 12.0 0.00 0.00 0.00 79 1015.5
20260507144003 64 27 5.0 12.0 0.00 0.00 0.00 79 1015.5
20260507143501 64 35 5.0 12.0 0.00 0.00 0.00 79 1015.3
20260507143025 64 328 5.0 12.0 0.00 0.00 0.00 79 1015.1
20260507141515 65 4 6.0 15.0 0.00 0.00 0.00 79 1014.6
20260507141002 65 12 6.0 15.0 0.00 0.00 0.00 79 1014.5
20260507140500 65 341 6.0 14.0 0.00 0.00 0.00 79 1014.4
20260507140029 64 19 5.0 12.0 0.00 0.00 0.00 81 1014.4
20260507135502 64 31 5.0 14.0 0.00 0.00 0.00 82 1014.7
20260507135003 64 53 5.0 14.0 0.00 0.00 0.00 82 1014.6
20260507134516 63 348 4.0 10.0 0.00 0.00 0.00 83 1014.9
20260507134003 63 339 4.0 10.0 0.00 0.00 0.00 82 1015.0
20260507133502 64 34 3.0 8.0 0.00 0.00 0.00 82 1015.2
20260507131516 64 301 4.0 10.0 0.00 0.00 0.00 82 1015.2
20260507130500 64 33 4.0 11.0 0.00 0.00 0.00 81 1015.5
20260507124516 64 306 5.0 14.0 0.00 0.00 0.00 81 1015.3
20260507124001 64 329 5.0 14.0 0.00 0.00 0.00 81 1015.0
20260507123500 64 2 3.0 9.0 0.00 0.00 0.00 81 1014.8
20260507123026 64 28 4.0 9.0 0.00 0.00 0.00 81 1014.6
20260507122500 64 336 4.0 11.0 0.00 0.00 0.00 81 1014.3
20260507122000 65 36 5.0 13.0 0.00 0.00 0.00 81 1014.3
20260507121005 65 358 3.0 8.0 0.00 0.00 0.00 81 1014.1
20260507120022 65 341 3.0 10.0 0.00 0.00 0.00 81 1014.0
20260507115001 65 290 4.0 9.0 0.00 0.00 0.00 81 1013.8
20260507114514 65 358 3.0 9.0 0.00 0.00 0.00 81 1013.7
20260507114000 65 358 3.0 8.0 0.00 0.00 0.00 81 1013.7
20260507113023 66 306 4.0 11.0 0.00 0.00 0.00 81 1013.5
20260507112459 66 335 3.0 9.0 0.00 0.00 0.00 81 1013.1
20260507111514 66 58 3.0 9.0 0.00 0.00 0.00 81 1013.1
20260507111000 66 2 4.0 10.0 0.00 0.00 0.00 81 1013.3
20260507110459 66 28 3.0 10.0 0.00 0.00 0.00 80 1013.1
20260507105500 66 341 2.0 6.0 0.00 0.00 0.00 81 1013.4
20260507105002 66 358 2.0 8.0 0.00 0.00 0.00 81 1013.1
20260507104515 66 342 2.0 9.0 0.00 0.00 0.00 81 1012.9
20260507104000 66 39 2.0 8.0 0.00 0.00 0.00 81 1012.9
20260507103024 66 51 2.0 5.0 0.00 0.00 0.00 81 1012.9
20260507102001 66 2 2.0 5.0 0.00 0.00 0.00 81 1012.8
20260507101515 66 31 3.0 6.0 0.00 0.00 0.00 80 1012.7
20260507101001 66 33 3.0 6.0 0.00 0.00 0.00 81 1012.7
20260507100029 66 353 3.0 9.0 0.00 0.00 0.00 81 1012.6
20260507095500 66 321 3.0 6.0 0.00 0.00 0.00 81 1012.6
20260507095000 66 79 3.0 6.0 0.00 0.00 0.00 81 1012.4
20260507094515 66 327 3.0 6.0 0.00 0.00 0.00 80 1012.6
20260507094000 66 300 4.0 9.0 0.00 0.00 0.00 81 1012.5
20260507093458 66 37 3.0 9.0 0.00 0.00 0.00 80 1012.3
20260507093026 66 15 3.0 9.0 0.00 0.00 0.00 80 1012.0
20260507092459 66 41 4.0 9.0 0.00 0.00 0.00 80 1012.1
20260507091514 66 340 4.0 12.0 0.00 0.00 0.00 80 1012.1
20260507090458 66 36 4.0 10.0 0.00 0.00 0.00 80 1012.1
20260507090023 66 20 3.0 10.0 0.00 0.00 0.00 80 1012.2
20260507085459 66 19 3.0 10.0 0.00 0.00 0.00 80 1012.3
20260507084959 66 330 3.0 8.0 0.00 0.00 0.00 80 1012.5
20260507084514 66 34 3.0 8.0 0.00 0.00 0.00 80 1012.3
20260507084000 66 2 4.0 10.0 0.00 0.00 0.00 80 1012.2
20260507083459 66 19 5.0 11.0 0.00 0.00 0.00 80 1012.4
20260507083021 66 358 5.0 11.0 0.00 0.00 0.00 80 1012.4
20260507082459 66 10 4.0 10.0 0.00 0.00 0.00 80 1012.2
20260507082000 66 358 4.0 10.0 0.00 0.00 0.00 80 1012.2
20260507081514 66 331 4.0 10.0 0.00 0.00 0.00 80 1012.1
20260507080959 66 329 3.0 10.0 0.00 0.00 0.00 80 1012.4
20260507080458 67 4 3.0 8.0 0.00 0.00 0.00 80 1012.3
20260507080023 66 67 3.0 8.0 0.00 0.00 0.00 79 1012.2
20260507075000 67 25 3.0 9.0 0.00 0.00 0.00 79 1012.3
20260507074000 66 52 3.0 8.0 0.00 0.00 0.00 79 1012.5
20260507073500 66 317 3.0 8.0 0.00 0.00 0.00 79 1012.5
20260507073022 66 348 3.0 8.0 0.00 0.00 0.00 79 1012.5
20260507072459 67 337 2.0 6.0 0.00 0.00 0.00 79 1012.6
20260507071959 67 21 3.0 6.0 0.00 0.00 0.00 79 1012.6
20260507071000 67 12 3.0 8.0 0.00 0.00 0.00 79 1012.7
20260507070459 67 67 3.0 8.0 0.00 0.00 0.00 79 1013.0
20260507070019 67 334 4.0 9.0 0.00 0.00 0.00 78 1013.0
20260507065000 67 25 3.0 11.0 0.00 0.00 0.00 78 1012.7
20260507064514 67 4 4.0 11.0 0.00 0.00 0.00 78 1012.5
20260507063022 67 348 5.0 13.0 0.00 0.00 0.00 78 1012.4
20260507062000 67 341 5.0 12.0 0.00 0.00 0.00 78 1012.8
20260507061514 67 5 5.0 12.0 0.00 0.00 0.00 78 1012.7
20260507061000 68 358 4.0 10.0 0.00 0.00 0.00 78 1012.5
20260507060459 68 9 2.0 7.0 0.00 0.00 0.00 78 1012.2
20260507055504 68 333 4.0 9.0 0.00 0.00 0.00 78 1012.4
20260507054519 68 353 5.0 12.0 0.00 0.00 0.00 77 1012.3
20260507053504 69 341 3.0 10.0 0.00 0.00 0.00 77 1012.3
20260507052505 69 339 3.0 9.0 0.00 0.00 0.00 77 1012.1
20260507052005 69 7 4.0 11.0 0.00 0.00 0.00 77 1012.2
20260507051519 69 340 4.0 11.0 0.00 0.00 0.00 77 1012.2
20260507051005 69 343 3.0 7.0 0.00 0.00 0.00 77 1012.2
20260507050504 69 33 3.0 9.0 0.00 0.00 0.00 77 1012.3
20260507050026 69 329 2.0 9.0 0.00 0.00 0.00 77 1012.3
20260507045503 69 2 2.0 6.0 0.00 0.00 0.00 77 1012.3
20260507044518 69 332 4.0 9.0 0.00 0.00 0.00 77 1012.2
20260507044004 70 343 4.0 10.0 0.00 0.00 0.00 76 1012.2
20260507043504 70 5 4.0 10.0 0.00 0.00 0.00 76 1012.2
20260507043027 70 322 3.0 8.0 0.00 0.00 0.00 77 1012.2
20260507042504 70 343 3.0 6.0 0.00 0.00 0.00 77 1012.2
20260507042005 70 30 4.0 12.0 0.00 0.00 0.00 77 1012.1
20260507041518 70 339 4.0 10.0 0.00 0.00 0.00 77 1012.1
20260507041004 70 318 3.0 9.0 0.00 0.00 0.00 77 1012.0
20260507040503 70 313 4.0 10.0 0.00 0.00 0.00 77 1012.1
20260507040028 70 331 5.0 11.0 0.00 0.00 0.00 76 1012.2
20260507035504 70 321 5.0 11.0 0.00 0.00 0.00 76 1012.1
20260507035005 71 307 4.0 10.0 0.00 0.00 0.00 76 1012.1
20260507034518 71 322 4.0 10.0 0.00 0.00 0.00 76 1012.1
20260507034005 71 19 4.0 10.0 0.00 0.00 0.00 76 1012.0
20260507033503 71 208 4.0 10.0 0.00 0.00 0.00 76 1011.9
20260507033029 71 321 4.0 11.0 0.00 0.00 0.00 76 1011.8
20260507032004 71 337 4.0 13.0 0.00 0.00 0.00 76 1011.6
20260507031004 71 4 4.0 8.0 0.00 0.00 0.00 76 1011.5
20260507030503 71 30 4.0 12.0 0.00 0.00 0.00 76 1011.3
20260507030025 72 333 4.0 11.0 0.00 0.00 0.00 76 1011.2
20260507025501 72 2 4.0 10.0 0.00 0.00 0.00 76 1011.1
20260507025003 72 307 4.0 11.0 0.00 0.00 0.00 76 1011.0
20260507024517 72 35 5.0 11.0 0.00 0.00 0.00 76 1010.9
20260507023502 72 337 4.0 10.0 0.00 0.00 0.00 76 1010.7
20260507022502 73 344 3.0 6.0 0.00 0.00 0.00 76 1010.5
20260507022004 73 23 3.0 8.0 0.00 0.00 0.00 76 1010.4
20260507021004 73 31 3.0 6.0 0.00 0.00 0.00 76 1010.2
20260507020504 73 304 3.0 6.0 0.00 0.00 0.00 76 1010.1
20260507020025 73 318 3.0 9.0 0.00 0.00 0.00 76 1010.1
20260507015504 73 327 2.0 8.0 0.00 0.00 0.00 76 1010.0
20260507014517 74 341 2.0 8.0 0.00 0.00 0.00 76 1009.8
20260507014004 74 348 3.0 6.0 0.00 0.00 0.00 77 1009.7
20260507013502 74 358 3.0 9.0 0.00 0.00 0.00 77 1009.7
20260507013029 74 344 4.0 11.0 0.00 0.00 0.00 76 1009.5
20260507012504 74 37 6.0 12.0 0.00 0.00 0.00 76 1009.4
20260507011518 75 358 5.0 13.0 0.00 0.00 0.00 76 1009.3
20260507011003 75 358 4.0 10.0 0.00 0.00 0.00 76 1009.2
20260507010504 75 30 3.0 7.0 0.00 0.00 0.00 77 1009.1
20260507010026 76 27 4.0 9.0 0.00 0.00 0.00 77 1009.0
20260507005503 76 344 4.0 11.0 0.00 0.00 0.00 76 1008.8
20260507005004 76 348 5.0 11.0 0.00 0.00 0.00 76 1008.7
20260507004518 76 358 4.0 11.0 0.00 0.00 0.00 76 1008.6
20260507004004 76 333 4.0 12.0 0.00 0.00 0.00 76 1008.5
20260507003503 77 308 5.0 13.0 0.00 0.00 0.00 75 1008.3
20260507003027 77 4 5.0 13.0 0.00 0.00 0.00 75 1008.2
20260507002503 78 323 6.0 16.0 0.00 0.00 0.00 74 1008.1
20260507002004 79 281 6.0 16.0 0.00 0.00 0.00 74 1008.0
20260507001518 81 358 5.0 15.0 0.00 0.00 0.00 73 1007.8
20260507001004 83 328 3.0 15.0 0.00 0.00 0.00 73 1007.8
20260507000503 84 262 2.0 5.0 0.00 0.00 0.00 75 1007.6
20260507000027 84 299 2.0 6.0 0.00 0.00 0.00 75 1007.6
20260506235503 84 313 2.0 6.0 0.00 0.00 0.00 75 1007.5
20260506235004 84 308 1.0 5.0 0.00 0.00 0.00 75 1007.6
20260506234519 84 292 1.0 4.0 0.00 0.00 0.00 75 1007.7
20260506234004 84 272 1.0 3.0 0.00 0.00 0.00 75 1007.6
20260506233027 84 326 2.0 5.0 0.00 0.00 0.00 74 1007.4
20260506232004 85 321 2.0 5.0 0.00 0.00 0.00 74 1007.4
20260506231518 85 337 2.0 8.0 0.00 0.00 0.00 74 1007.5
20260506231004 85 334 1.0 8.0 0.00 0.00 0.00 73 1007.4
20260506230504 85 348 1.0 4.0 0.00 0.00 0.00 72 1007.4
20260506230026 85 263 1.0 3.0 0.00 0.00 0.00 72 1007.4
20260506225501 85 248 1.0 4.0 0.00 0.00 0.00 72 1007.3
20260506225003 85 212 2.0 4.0 0.00 0.00 0.00 72 1007.4
20260506224516 86 312 1.0 4.0 0.00 0.00 0.00 71 1007.4
20260506224003 86 263 1.0 5.0 0.00 0.00 0.00 71 1007.3
20260506223503 86 256 2.0 5.0 0.00 0.00 0.00 71 1007.3
20260506223025 86 235 2.0 3.0 0.00 0.00 0.00 70 1007.3
20260506222501 86 250 1.0 4.0 0.00 0.00 0.00 72 1007.2
20260506222002 85 251 1.0 4.0 0.00 0.00 0.00 72 1007.2
20260506221517 85 264 1.0 3.0 0.00 0.00 0.00 72 1007.2
20260506221003 85 200 1.0 3.0 0.00 0.00 0.00 72 1007.2
20260506220501 85 224 2.0 5.0 0.00 0.00 0.00 71 1007.1
20260506220025 85 232 2.0 5.0 0.00 0.00 0.00 72 1007.1
20260506215501 85 157 2.0 5.0 0.00 0.00 0.00 71 1007.2
20260506215003 85 203 2.0 5.0 0.00 0.00 0.00 71 1007.2
20260506214517 85 194 2.0 6.0 0.00 0.00 0.00 71 1007.2
20260506214003 85 275 2.0 6.0 0.00 0.00 0.00 71 1007.2
20260506213502 85 101 2.0 5.0 0.00 0.00 0.00 71 1007.2
20260506213025 85 125 2.0 4.0 0.00 0.00 0.00 70 1007.3
20260506212502 85 187 2.0 4.0 0.00 0.00 0.00 71 1007.3
20260506212002 86 240 3.0 8.0 0.00 0.00 0.00 70 1007.3
20260506211517 86 258 3.0 7.0 0.00 0.00 0.00 69 1007.3
20260506211002 86 103 3.0 7.0 0.00 0.00 0.00 72 1007.2
20260506210501 85 144 3.0 7.0 0.00 0.00 0.00 74 1007.2
20260506210025 84 164 3.0 7.0 0.00 0.00 0.00 74 1007.3
20260506205501 84 56 2.0 9.0 0.00 0.00 0.00 73 1007.5
20260506205003 85 102 2.0 9.0 0.00 0.00 0.00 71 1007.4
20260506204516 85 263 2.0 7.0 0.00 0.00 0.00 71 1007.5
20260506204002 86 259 2.0 6.0 0.00 0.00 0.00 69 1007.6
20260506203500 85 119 2.0 6.0 0.00 0.00 0.00 70 1007.6
20260506203025 85 160 1.0 5.0 0.00 0.00 0.00 72 1007.6
20260506202501 85 207 2.0 6.0 0.00 0.00 0.00 72 1007.7
20260506202006 85 181 1.0 6.0 0.00 0.00 0.00 71 1007.7
20260506201516 85 176 1.0 4.0 0.00 0.00 0.00 71 1007.7
20260506201001 85 119 2.0 7.0 0.00 0.00 0.00 72 1007.8
20260506200500 84 267 1.0 5.0 0.00 0.00 0.00 74 1007.7
20260506200026 84 180 1.0 5.0 0.00 0.00 0.00 73 1007.8
20260506195501 84 249 1.0 5.0 0.00 0.00 0.00 72 1007.8
20260506194516 84 337 2.0 4.0 0.00 0.00 0.00 73 1008.0
20260506193502 84 124 2.0 4.0 0.00 0.00 0.00 75 1008.0
20260506193025 84 150 2.0 5.0 0.00 0.00 0.00 75 1008.0
20260506192502 84 164 2.0 5.0 0.00 0.00 0.00 75 1008.1
20260506192002 84 186 1.0 4.0 0.00 0.00 0.00 75 1008.1
20260506191517 83 206 1.0 3.0 0.00 0.00 0.00 74 1008.2
20260506191002 84 164 1.0 3.0 0.00 0.00 0.00 75 1008.3
20260506190502 83 212 1.0 5.0 0.00 0.00 0.00 75 1008.4
20260506190025 83 172 2.0 6.0 0.00 0.00 0.00 75 1008.5
20260506185502 83 156 2.0 6.0 0.00 0.00 0.00 76 1008.6
20260506185003 83 161 2.0 3.0 0.00 0.00 0.00 76 1008.6
20260506184517 83 21 2.0 655.0 1.80 0.53 0.00 77